Location: Ambrose
(33.6907°N, 96.3853°W)
Time: 23:32:51
(UTC+00:00)

Daily predictions for brighter satellites

Satellite Brightness Start Highest point End
(mag) Time Altitude Azimuth Time Altitude Azimuth Time Altitude Azimuth
Cosmos 2369 3.9 12:00:43 10° SW 12:06:09 47° WNW 12:11:37 10° N
Aurora 2 Rocket 4.4 12:02:31 15° WSW 12:06:17 33° S 12:12:33 10° ESE
Cosmos 1400 Rocket 2.7 12:03:56 10° SSW 12:07:37 54° W 12:11:22 10° N
Cosmos 783 Rocket 4.5 12:04:35 10° NNW 12:09:47 90° E 12:14:57 10° SSE
Cosmos 2082 4.3 12:05:37 10° NNW 12:11:15 59° ENE 12:16:48 10° SSE
Cosmos 1782 Rocket 3.5 12:07:25 10° SSW 12:11:48 73° W 12:16:13 10° N
Cosmos 1908 Rocket 4.2 12:08:16 10° SW 12:12:09 32° W 12:16:05 10° NNW
SL-16 R/B 2.5 12:09:01 10° SSW 12:14:38 74° ESE 12:20:17 10° NNE
Cosmos 1812 2.2 12:13:28 12° SW 12:15:21 29° W 12:17:30 10° NNW
CZ-4 R/B 4.2 12:11:38 10° N 12:16:22 45° WNW 12:21:03 10° SW
IGS 5A 3.2 12:13:33 10° N 12:17:31 76° WNW 12:21:28 10° SSW
Cosmos 372 Rocket 3.8 12:19:25 10° SSW 12:24:28 75° WNW 12:29:34 10° NNE
Cosmos 2227 Rocket 3.2 12:21:19 10° NW 12:25:52 25° WSW 12:30:24 10° SSW
Cosmos 2333 Rocket 2.6 12:21:00 10° SSW 12:26:43 72° ESE 12:32:27 10° NNE
Cosmos 1898 Rocket 3.5 12:28:44 10° SSW 12:33:59 81° WNW 12:39:19 10° NNE
Cosmos 1869 3.5 12:30:54 10° SSW 12:34:11 35° W 12:37:27 10° NNW
Cosmos 2221 Rocket 4.5 12:33:00 10° NNW 12:36:51 28° W 12:40:39 10° SSW
DELTA 2 R/B (1) 3.9 12:31:21 10° SW 12:36:52 71° SSE 12:42:25 10° ENE
Cosmos 1025 Rocket 4.4 12:37:10 10° NW 12:40:07 18° W 12:43:04 10° SW
Cosmos 2173 Rocket 4.0 12:34:15 10° S 12:40:35 77° W 12:46:59 10° N
BREEZE-M DEB (TANK) 2.3 12:38:20 10° SW 12:40:38 84° NW 12:45:26 10° NE
Cosmos 2322 Rocket 2.6 12:39:29 10° SSW 12:45:08 73° ESE 12:50:47 10° NNE
Cosmos 1346 Rocket 2.5 12:43:01 10° N 12:46:42 83° W 12:50:21 10° S
SL-4 R/B 1.7 12:43:25 10° NW 12:47:05 79° SW 12:50:54 10° SE
Cosmos 1937 Rocket 3.5 12:42:03 10° SSW 12:47:11 85° WNW 12:52:23 10° NNE
NOSS 3-1 (A) 3.9 12:44:44 10° WSW 12:48:27 24° NW 12:52:39 10° N
Cosmos 1980 Rocket 4.0 12:47:47 10° WNW 12:48:47 10° NW 12:49:47 10° NW
BREEZE-M DEB (TANK) 2.4 12:46:15 10° SW 12:48:56 77° NW 12:55:59 10° NE
Cosmos 2219 Rocket 3.9 12:44:23 10° S 12:49:34 39° ESE 12:54:44 10° NE
COSMO-SKYMED 1 3.3 12:46:18 10° SSW 12:49:51 28° W 12:53:25 10° NW
USA 215 3.9 12:44:16 10° ESE 12:50:38 56° NE 12:57:01 10° NW
GP-B 3.7 12:47:18 10° NNW 12:51:14 33° W 12:55:08 10° SW
Cosmos 2100 Rocket 4.1 12:47:23 10° SSW 12:53:37 58° W 12:59:52 10° N
